ROCKY HARBOUR CS, NFLD. current weather conditions

sailwx.info

Wind from 130 at 13 knots gusting 26

Air temperature 8.0° C

Last reported at 2017-Nov-23 12:00 UTC.
Time now 2017-Nov-23 13:18 UTC

Location: N 49°34' W 057°53'.
View on Google Maps.

See reports from other nearby stations

  
Tides and Currents Weather Stations Pressure Air Temp Water Temp Dewpoint Dewpoint Depression Visibility Wind Speed Wind Dir Waves Ship Positions
date/time (UTC)wind fromknots sea level pressurealtimeterstation pressurevisibilityair tempwater tempwave heightnotes
2017-Nov-23 12:00 130 13 gusting 26 8.0
2017-Nov-23 11:00 130 5 6.0
2017-Nov-23 10:00 190 5 5.0
2017-Nov-23 09:00 160 7 gusting 14 5.0
2017-Nov-23 08:00 160 7 gusting 18 6.0
2017-Nov-23 07:00 150 7 gusting 17 5.0
2017-Nov-23 06:00 150 7 5.0
2017-Nov-23 05:00 110 7 gusting 17 5.0
2017-Nov-23 04:00 130 7 gusting 14 4.0
2017-Nov-23 03:00 130 7 gusting 15 4.0
2017-Nov-23 02:00 140 6 3.0
2017-Nov-23 01:00 130 6 3.0
2017-Nov-23 00:00 130 6 3.0
2017-Nov-22 23:00 130 5 3.0
2017-Nov-22 22:00 140 5 3.0
2017-Nov-22 21:00 130 4 3.0
2017-Nov-22 20:00 130 2 3.0
2017-Nov-22 19:00 130 2 3.0
2017-Nov-22 18:00 150 5 4.0
2017-Nov-22 17:00 140 4 5.0
2017-Nov-22 16:00 160 1 4.0
2017-Nov-22 15:00 100 0 3.0
2017-Nov-22 14:00 120 4 -0.0
2017-Nov-22 13:00 140 2 -2.0
2017-Nov-22 12:00 170 1 -4.0
2017-Nov-22 11:00 050 2 -4.0
2017-Nov-22 10:00 080 1 -4.0
2017-Nov-22 09:00 030 2 -3.0
2017-Nov-22 08:00 330 0 -1.0
2017-Nov-22 07:00 260 5 -0.0
2017-Nov-22 06:00 260 2 -1.0
2017-Nov-22 05:00 280 2 -1.0
2017-Nov-22 04:00 260 5 -1.0
2017-Nov-22 03:00 270 6 -1.0
2017-Nov-22 02:00 270 7 -1.0
2017-Nov-22 01:00 260 9 gusting 14 -1.0
2017-Nov-22 00:00 260 9 gusting 14 -1.0
2017-Nov-21 23:00 260 11 gusting 17 -1.0
2017-Nov-21 22:00 260 13 gusting 21 -1.0
2017-Nov-21 21:00 260 14 gusting 22 1.0
2017-Nov-21 20:00 270 12 gusting 22 -0.0
2017-Nov-21 19:00 270 11 gusting 19 -1.0
2017-Nov-21 18:00 250 14 gusting 25 -0.0
2017-Nov-21 17:00 260 13 gusting 20 -0.0
2017-Nov-21 16:00 260 13 gusting 20 -0.0
2017-Nov-21 15:00 260 13 gusting 21 -1.0
2017-Nov-21 14:00 250 14 gusting 24 -1.0
2017-Nov-21 13:00 250 18 gusting 25 -1.0